Terug naar catalogus

HULIANWANG DIGUI-29

ActiefCommunicatiePO
NORAD 63696·PAYLOAD·🇨🇳 China

Gelanceerd Apr 28, 2025 vanaf Wenchang Space Launch Site

Loading…

Volgende Passages (komende 24 uur)

TLE

VersSource: Space-Track

Epoch: Sep 14, 2026, 14:38 UTC

1 63696U 25086K   26257.60978892  .00000026  00000-0  25425-4 0  9992
2 63696  86.4972 282.9119 0002052  82.6809 277.4558 13.24414654 66691

Volg HULIANWANG DIGUI-29 in realtime met AllMySat

Download on the App Store